Location: Easthampton
(42.2676°N, 72.6690°W)
Time: 04:20:32
(UTC+00:00)

RS-44 - Pass Details

Date: 23 April 2024
Orbit: 1174 x 1511 km, 82.5° (Epoch: 27 May)

Event Time Altitude Azimuth Distance (km) Brightness Sun altitude
Rises 23:53:36 0° 171° (S) 4,637 ? -3.1°
Reaches altitude 10° 23:56:34 10° 168° (SSE) 3,651 ? -3.6°
Maximum altitude 00:05:11 60° 92° (E) 1,646 ? -5.1°
Drops below altitude 10° 00:13:26 10° 15° (NNE) 3,500 ? -6.5°
Sets 00:16:13 0° 12° (NNE) 4,436 ? -7.0°
